Preview of NWS' New Version of Forecast
This preview is not operational and should not be used for support decisions.

Regional Weather Roundup (RWR)

Issued by San Angelo, TX (SJT)

                            
000
ASUS44 KSJT 200715
RWRSJT
WEST CENTRAL TEXAS REGIONAL WEATHER ROUNDUP
NATIONAL WEATHER SERVICE SAN ANGELO TX
200 AM CDT MON MAY 20 2019

NOTE: "FAIR" INDICATES FEW OR NO CLOUDS BELOW 12,000 FEET WITH NO
SIGNIFICANT WEATHER AND/OR OBSTRUCTIONS TO VISIBILITY.

TXZ049-054-064>066-071>073-076>078-098-099-113-114-127-128-139-140-
154-155-168>170-200800
...LOCATIONS ACROSS WEST CENTRAL TEXAS...
  
CITY           SKY/WX    TMP DP  RH WIND       PRES   REMARKS
SAN ANGELO     PTCLDY    68  64  87 E7        29.83F                  
ABILENE        CLEAR     70  61  73 SE13      29.84F                  
DYESS AFB      PTCLDY    71  56  61 SE13      29.83F                  
JUNCTION       MOCLDY    75  71  87 SE3       29.87S                  
SWEETWATER     PTCLDY    72  62  72 E13G21    29.86                   
BROWNWOOD      CLOUDY    72  66  83 E8        29.85F                  
COLEMAN        MOSUNNY   68  62  79 E6        29.86F                  
SONORA         PTCLDY    75  70  83 SE10      29.88F                  
OZONA          FAIR      73  66  78 SE18G24   29.84F                  
BRADY          CLOUDY    75  72  88 SE13G22   29.86S                  
$$

TEXAS PANHANDLE/OKLAHOMA PANHANDLE
  
CITY           SKY/WX    TMP DP  RH WIND       PRES   REMARKS
AMARILLO       PTCLDY    58  50  75 SE21      29.87F                  
BORGER         PTCLDY    63  50  62 SE18G30   29.86F                  
CANADIAN       PTCLDY    60  55  83 SE12      29.90F                  
DALHART        MOCLDY    57  48  72 SE14      29.88S                  
DUMAS          CLOUDY    56  48  74 SE16      29.87F                  
GUYMON         NOT AVBL                                               
HEREFORD       SUNNY     59  53  80 SE10G20   29.88F                  
PAMPA          MOSUNNY   60  53  77 SE22G28   29.89S                  
PERRYTON       PTCLDY    60  53  77 SE17      29.88                   
$$

SOUTHERN PANHANDLE/SOUTH PLAINS/ROLLING PLAINS
  
CITY           SKY/WX    TMP DP  RH WIND       PRES   REMARKS
LUBBOCK        PTCLDY    65  53  65 SE18      29.85                   
SNYDER         CLEAR     68  58  69 SE12      29.83                   
CHILDRESS      PTCLDY    64  56  75 E10       29.88F                  
SEMINOLE       SUNNY     64  53  66 SE8       29.86F                  
$$

PERMIAN BASIN
  
CITY           SKY/WX    TMP DP  RH WIND       PRES   REMARKS
MIDLAND        CLEAR     71  62  73 SE14G22   29.80F                  
ODESSA         CLEAR     70  59  68 SE16      29.80F                  
WINK           CLOUDY    76  63  64 SE21G31   29.73F                  
$$

FAR WEST/SOUTHWEST MOUNTAINS/TRANS PECOS
  
CITY           SKY/WX    TMP DP  RH WIND       PRES   REMARKS
ALPINE         MOSUNNY   69  62  78 S9        29.88F                  
DRYDEN           N/A     75  70  84 E17G33    29.75F                  
EL PASO        CLOUDY    78  25  14 SW10      29.78F                  
FORT STOCKTON  CLEAR     74  66  76 SE29G43   29.73F                  
GUADALUPE PASS CLOUDY    67  56  67 E14       29.88S                  
MARFA          CLEAR     64  59  83 CALM      29.87F                  
PECOS          SUNNY     76  65  70 E18G25    29.72F                  
$$

DALLAS/FORT WORTH METROPLEX
  
CITY           SKY/WX    TMP DP  RH WIND       PRES   REMARKS
DFW AIRPORT    MOCLDY    73  60  63 E9        29.85F                  
FTW MEACHAM    PTCLDY    72  60  66 E12       29.86F                  
DAL-EXECUTIVE  PTCLDY    72  61  68 E9        29.86F                  
GRAND PRAIRIE  PTCLDY    73  59  60 E9        29.88                   
ADDISON        CLEAR     73  59  61 E10G16    29.89F                  
MESQUITE       SUNNY     72  62  69 E7        29.88                   
LANCASTER      MOSUNNY   69  63  82 E3        29.89S                  
$$

NORTH CENTRAL TEXAS
  
CITY           SKY/WX    TMP DP  RH WIND       PRES   REMARKS
SHRMAN/DENISON MOSUNNY   66  60  78 E9        29.90F                  
GAINESVILLE    PTCLDY    65  59  82 CALM      29.91F                  
BRIDGEPORT     SUNNY     64  61  91 E3        29.89                   
DENTON         PTCLDY    70  60  70 E3        29.88F                  
WAXAHACHIE     PTSUNNY   71  64  78 E5        29.88F                  
GRANBURY       PTSUNNY   74  61  65 CALM      29.87F                  
$$

WESTERN NORTH TEXAS
  
CITY           SKY/WX    TMP DP  RH WIND       PRES   REMARKS
WICHITA FALLS  CLEAR     64  61  90 E8        29.87F                  
VERNON         PTSUNNY   63  61  94 E7        29.89                   
BRECKENRIDGE   SUNNY     71  58  61 SE12G17   29.85F HAZE             
COMANCHE       CLOUDY    69  64  83 SE5       29.87F                  
$$

CENTRAL AND SOUTH CENTRAL TEXAS
  
CITY           SKY/WX    TMP DP  RH WIND       PRES   REMARKS
AUSTIN/BERGSTM CLOUDY    78  74  87 S8        29.86F                  
WACO           PTCLDY    78  73  84 SE15      29.85F                  
HILLSBORO      CLOUDY    74  72  95 E7        29.86F                  
TEMPLE           N/A     76  76 100 SE13      29.86F                  
KILLEEN-GRAY   CLOUDY    75  72  90 SE13      29.85                   
FORT HOOD        N/A     76  73  89 S10       29.82F                  
GEORGETOWN     CLOUDY    76  73  91 S12       29.88F                  
LAGO VISTA     CLOUDY    74  72  92 S7G16     29.88F                  
SAN MARCOS     CLOUDY    77  74  90 SE12G17   29.87F                  
NEW BRAUNFELS  CLOUDY    78  74  87 SE12      29.85F                  
RANDOLPH AFB   CLOUDY    77  75  93 SE9       29.86                   
SAN ANTONIO    CLOUDY    77  73  87 SE13      29.86F                  
STINSON        CLOUDY    79  73  82 E12       29.83F                  
PLEASANTON     NOT AVBL                                               
LA GRANGE      CLOUDY    79  79 100 SE5       29.85F                  
GIDDINGS       CLOUDY    78  76  93 S8        29.88F                  
$$

EAST TEXAS
  
CITY           SKY/WX    TMP DP  RH WIND       PRES   REMARKS
PARIS          PTCLDY    67  61  81 E7        29.91F                  
CLARKSVILLE    NOT AVBL                                               
TYLER          PTCLDY    73  71  93 SE6       29.89F                  
LONGVIEW       CLEAR     72  71  97 E5        29.90F                  
PALESTINE      MOSUNNY   72  70  93 SE3       29.89F                  
NACOGDOCHES    CLOUDY    72  70  93 SE7       29.92F                  
$$

TEXAS HILL COUNTRY AND EDWARDS PLATEAU
  
CITY           SKY/WX    TMP DP  RH WIND       PRES   REMARKS
LLANO          MOSUNNY   75  73  94 SE8       29.88F                  
HORSESHOE BAY  CLOUDY    77  72  83 S5        29.87F                  
KERRVILLE      CLOUDY    76  72  85 SE10      29.88F                  
FREDERICKSBRG  CLOUDY    74  68  80 S10       29.89S                  
ROCKSPRINGS    CLOUDY    73  70  88 SE14G23   29.92S                  
HONDO          CLOUDY    77  73  87 SE10      29.85F                  
UVALDE         CLOUDY    76  74  95 E14       29.84F                  
DEL RIO        CLOUDY    79  72  79 E13G21    29.77F                  
$$

SOUTHEAST TEXAS
  
CITY           SKY/WX    TMP DP  RH WIND       PRES   REMARKS
COLLEGE STN    MOCLDY    76  74  93 SE7       29.87F                  
CALDWELL       FOG       77  74  90 SE10G16   29.88S VSB<1/4          
CROCKETT         N/A     72  72 100 SE3       29.92F                  
BRENHAM        CLOUDY    78  78  99 SE8       29.87F FOG              
HUNTSVILLE     MOCLDY    78  74  87 CALM      29.88F                  
CONROE         CLOUDY    78  75  90 SE6       29.89F                  
HOUSTON BUSH   CLOUDY    79  77  94 S7        29.88F                  
HOUSTON HOBBY  MOCLDY    80  75  84 S12G21    29.88F                  
PERLAND        CLOUDY    80  76  87 S9        29.89F                  
WHARTON        CLOUDY    78  75  90 SE8       29.87F                  
$$

THE UPPER TEXAS COAST
  
CITY           SKY/WX    TMP DP  RH WIND       PRES   REMARKS
ORANGE         CLOUDY    77  77  98 SE3       29.94S                  
PORT ARTHUR    CLOUDY    79  74  84 E8        29.91S                  
GALVESTON      CLOUDY    79  76  90 S17       29.89F                  
ANGLETON       CLOUDY    79  75  87 SE13      29.87F                  
BAY CITY       CLOUDY    79  77  94 SE10G17   29.87F                  
$$

TEXAS COASTAL BEND, RIO GRANDE PLAINS DEEP SOUTH TEXAS
  
CITY           SKY/WX    TMP DP  RH WIND       PRES   REMARKS
VICTORIA       CLOUDY    80  76  87 SE13      29.85F                  
BEEVILLE       CLOUDY    82  76  83 SE10      29.83F                  
ROCKPORT       CLOUDY    80  77  90 SE15      29.83F FOG              
PORT ARANSAS   CLOUDY    80  78  94 SE14      29.85F FOG              
PORT LAVACA    CLOUDY    82  79  91 SE10      29.86S FOG              
CORPUS CHRISTI CLOUDY    82  78  88 SE15      29.82F                  
KINGSVILLE NAS CLOUDY    82  78  88 SE12      29.81F                  
COTULLA        CLOUDY    79  76  90 E10       29.81F                  
LAREDO         CLOUDY    82  76  81 SE16      29.78F                  
BROWNSVILLE    CLOUDY    83  80  91 SE10      29.82F                  
PORT ISABEL    CLOUDY    82  77  84 SE13      29.81F                  
HEBBRONVILLE   CLOUDY    78  75  88 SE12      29.82F FOG              
MCALLEN        CLOUDY    82  78  88 SE13      29.81F                  
WESLACO        NOT AVBL                                               
FALFURRIAS     CLOUDY    81  77  88 SE7       29.81F                  
EDINBURG       CLOUDY    82  78  86 SE9       29.80F                  
$$